Location: Sarraziet
(43.7030°N, 0.4877°W)
Time: 21:07:25
(UTC+00:00)

Daily predictions for brighter satellites

Satellite Brightness Start Highest point End
(mag) Time Altitude Azimuth Time Altitude Azimuth Time Altitude Azimuth
ATLAS CENTAUR R/B 3.0 16:46:41 10° NNW 16:50:35 42° NE 16:57:45 10° ESE
SL-8 R/B 3.8 16:49:28 10° WNW 16:54:13 65° NNE 16:58:58 10° E
Cosmos 1607 4.4 16:48:36 10° SW 16:54:52 64° NW 17:01:17 10° NNE
USA 305 3.3 16:51:34 10° NW 16:55:08 36° NNE 16:58:42 10° E
CZ-4B R/B 4.5 16:54:17 10° ESE 16:58:16 24° ENE 17:02:11 10° NNE
Cosmos 1943 3.6 16:56:46 10° NNW 17:02:06 42° ENE 17:07:25 10° SE
ATLAS 2AS CENTAUR R/B 3.8 16:57:38 10° NNW 17:03:06 24° NNE 17:08:22 10° E
Helios 1A 4.3 17:00:30 10° NE 17:03:44 22° E 17:06:56 10° SE
SMAP 3.2 17:00:14 10° SSE 17:04:44 52° ENE 17:09:15 10° N
Helios 1B rocket 2.4 17:01:18 10° SSE 17:05:13 82° WSW 17:09:11 10° NNW
Cosmos 1500 2.9 17:02:19 10° N 17:05:52 78° E 17:09:22 10° SSE
CZ-4B R/B 4.0 17:04:48 10° SE 17:08:10 40° ENE 17:11:36 10° N
Cosmos 2297 Rocket 4.4 17:07:18 10° W 17:11:16 19° NW 17:15:14 10° N
Cosmos 407 Rocket 4.1 17:08:57 10° N 17:13:37 33° ENE 17:18:12 10° SE
Cosmos 405 Rocket 4.1 17:10:40 10° SW 17:14:13 39° WNW 17:17:51 10° N
Cosmos 2219 4.4 17:12:13 10° SW 17:17:28 40° WNW 17:22:47 10° NNE
ISS -3.5 17:15:36 10° WNW 17:18:57 70° SW 17:22:16 10° SE
Cosmos 2251 Rocket 3.9 17:16:23 10° N 17:21:28 42° ENE 17:26:32 10° SE
Radarsat 4.5 17:21:21 10° SSE 17:26:31 76° ENE 17:31:43 10° N
Lacrosse 5 2.6 17:23:33 10° SSW 17:28:12 38° SE 17:31:43 16° ENE
Cosmos-2242 3.0 17:25:27 10° S 17:29:45 66° E 17:34:03 10° NNE
Cosmos 2151 4.4 17:26:02 10° NNW 17:30:03 41° W 17:34:03 10° SSW
COSMO-SKYMED 1 3.4 17:29:30 10° NE 17:33:15 30° E 17:37:04 10° SSE
Lacrosse 4 Rocket 1.4 17:29:30 10° NNW 17:33:48 62° ENE 17:37:59 10° SE
APEX 2.3 17:35:06 10° SSW 17:38:08 84° ESE 17:39:58 20° NNE
Meteor 2-2 Rocket 4.3 17:33:46 10° S 17:39:22 58° E 17:45:07 10° NNE
Cosmos 2221 3.6 17:37:13 10° SE 17:40:26 22° E 17:41:02 21° ENE
Cosmos 2344 3.5 17:32:44 10° SSW 17:40:27 69° ESE 17:47:04 13° NE
Cosmos 1023 Rocket 4.4 17:37:24 10° NNW 17:42:35 83° ENE 17:47:40 10° SSE
Cosmos 1812 2.5 17:39:12 10° S 17:42:52 89° W 17:46:35 10° N
USA 234 3.3 17:37:35 15° NE 17:43:12 72° SE 17:49:43 10° SW
Meteor 1-25 Rocket 4.2 17:37:48 10° N 17:43:27 64° ENE 17:48:58 10° SSE
Cosmos 1818 3.6 17:39:01 10° SSW 17:44:24 71° ESE 17:48:45 16° NE
Cosmos 1190 Rocket 4.5 17:40:50 10° N 17:45:45 37° ENE 17:50:37 10° SE
Cosmos 2026 Rocket 4.2 17:40:31 10° SSE 17:46:30 50° E 17:52:36 10° NNE
USA 276 2.8 17:45:22 10° W 17:47:32 28° NNW 17:48:03 25° N
AQUARIUS 4.4 17:44:39 10° S 17:49:06 73° WSW 17:53:34 10° NNW
Cosmos 2195 Rocket 4.5 17:47:19 10° S 17:53:35 68° E 17:59:49 10° NNE
H-2A R/B 4.0 17:55:39 10° S 17:56:48 11° S 17:58:14 10° SSE
[s.n.58448] 4.3 17:54:56 10° W 17:57:12 27° SSW 17:58:25 18° SSE
Cosmos 1844 Rocket 2.8 17:53:11 10° S 17:58:32 52° ESE 18:02:02 21° NE
Cosmos 2263 Rocket 3.6 17:53:38 10° WSW 17:58:41 35° NW 18:03:48 10° N
USA 307 3.1 17:55:07 10° WNW 17:58:56 60° SW 18:02:21 12° SE
[s.n.58449] 4.3 17:57:28 10° W 17:59:38 25° SSW 18:00:40 19° SSE
[s.n.58459] 4.3 17:58:47 10° W 18:01:03 26° SSW 18:02:07 19° SSE
[s.n.58458] 4.4 17:59:31 10° W 18:01:45 26° SSW 18:02:49 19° SSE
[s.n.58456] 4.4 18:00:21 10° W 18:02:35 25° SSW 18:03:37 19° SSE
[s.n.58447] 4.4 18:00:34 10° W 18:02:46 25° SSW 18:03:44 20° SSE
[s.n.58457] 4.4 18:01:07 10° W 18:03:21 25° SSW 18:04:21 20° SSE
Cosmos 1092 Rocket 3.9 17:57:53 10° S 18:03:58 71° E 18:10:05 10° NNE
Nadezhda 4 Rocket 4.4 17:58:01 10° SSW 18:04:05 63° W 18:10:11 10° N
[s.n.58455] 4.4 18:01:54 10° W 18:04:08 25° SSW 18:05:06 20° SSE
YAOGAN 1 4.4 18:07:03 16° NNE 18:07:03 16° NNE 18:08:04 10° N
[s.n.58454] 4.4 18:02:41 10° W 18:04:54 25° SSW 18:05:51 20° SSE
Cosmos 1766 Rocket 4.0 18:00:55 10° N 18:04:58 37° ENE 18:08:58 10° SE
Cosmos 1933 3.2 18:01:25 10° S 18:05:23 68° E 18:07:55 21° NNE
[s.n.58453] 4.4 18:03:28 10° W 18:05:42 24° SSW 18:06:36 20° S
Cosmos 1420 Rocket 4.2 18:00:45 10° S 18:05:46 51° ESE 18:08:27 26° NE
[s.n.58452] 4.4 18:04:12 10° W 18:06:25 24° SSW 18:07:18 20° S
[s.n.58451] 4.4 18:05:00 10° W 18:07:12 24° SSW 18:08:03 20° S
[s.n.58450] 4.4 18:05:46 10° W 18:07:58 24° SSW 18:08:47 20° S
ADEOS 3.6 18:04:25 10° SSE 18:09:28 54° ENE 18:14:34 10° N
Cosmos 1140 Rocket 4.0 18:05:05 10° NNW 18:10:10 59° WSW 18:15:12 10° S
Cosmos 1624 Rocket 4.1 18:08:32 10° S 18:13:36 53° ESE 18:15:39 33° NE
Meteor 1-5 Rocket 4.3 18:08:32 10° N 18:14:11 58° ENE 18:19:57 10° SSE
BREEZE-M DEB (TANK) 3.2 18:14:02 10° WNW 18:15:04 20° NNW 18:15:04 20° NNW
CBERS 1 LM4 rocket 4.4 18:14:30 10° SSE 18:19:19 81° WSW 18:24:05 10° NNW
SKYMED 2 3.5 18:18:07 17° N 18:21:27 83° WNW 18:25:48 10° SSW
Cosmos 1603 4.0 18:16:45 10° NNW 18:22:25 70° WSW 18:27:59 10° SSE
Cosmos 192 4.3 18:21:09 10° SSW 18:26:02 85° WNW 18:28:35 29° NNE
SL-08 R/B 3.1 18:25:44 32° NNE 18:27:53 79° ESE 18:32:32 10° S
USA 305 3.8 18:26:23 10° WNW 18:30:02 40° SW 18:31:45 24° S
RESURS DK-1 4.0 18:30:16 10° NNW 18:31:56 22° N 18:31:56 22° N
Cosmos 1782 3.9 18:31:50 10° SSW 18:35:34 43° WNW 18:38:16 17° NNW
Cosmos 676 Rocket 3.9 18:34:28 10° NNW 18:39:46 64° ENE 18:40:04 62° E
EO 1 Delta rocket 4.4 18:41:13 10° S 18:48:11 88° W 18:53:39 10° N
CZ-4B DEB 4.0 18:53:04 49° SSE 18:54:38 79° ENE 19:00:12 10° NNW
ATLAS 2AS CENTAUR R/B 2.5 18:48:16 10° NW 18:55:10 77° NE 18:56:38 57° ESE
ATLAS CENTAUR R/B 4.3 18:50:23 10° WNW 18:55:30 44° SW 19:04:55 10° SSE
Cosmos 1241 Rocket 4.5 18:52:34 10° SW 18:58:59 81° WNW 19:00:35 53° NNE
Cosmos 2056 Rocket 4.2 19:02:16 10° SW 19:07:31 53° WNW 19:09:06 39° NNW
Cosmos 1954 Rocket 4.4 19:05:14 10° NNW 19:10:24 59° WSW 19:11:51 43° SSW
Cosmos 1844 4.4 19:04:57 10° SW 19:10:34 51° WNW 19:12:19 38° N
Lacrosse 5 2.6 19:06:15 10° WSW 19:10:56 45° NW 19:10:56 45° NW
COSMOS 2455 2.9 19:05:07 10° SSW 19:10:14 64° S 19:10:14 64° S
Cosmos 2221 4.1 19:13:51 10° SW 19:17:38 31° WNW 19:17:46 31° WNW
USA 234 3.9 19:24:55 41° N 19:25:59 44° NNW 19:32:06 10° W
Cosmos 1844 Rocket 4.4 19:38:07 10° WSW 19:42:43 26° NW 19:43:44 25° NW
